Hourly Weather Roundup
Issued by NWS Central Illinois

Home | Current Version | Previous Version | Text Only | Print | Product List | Glossary On
Versions: 1 2 3 4 5 6 7 8 9 10 11 12 13 14 15 16 17 18 19 20 21 22 23 24 25 26 27 28 29 30 31 32 33 34 35 36 37 38 39 40 41 42 43 44 45 46 47 48 49 50
000
NZUS43 KILX 021710
HWRILX

AREA WEATHER ROUNDUP
NATIONAL WEATHER SERVICE, LINCOLN IL
1200 PM CDT WED SEP 02 2015


CITY           SKY/WX    TMP DP  RH WIND       PRES   REMARKS
BLOOMINGTON    MOSUNNY   88  72  58 SW9       30.09F HX  94
CHAMPAIGN      SUNNY     85  70  60 W8        30.10F HX  89
DANVILLE       SUNNY     86  73  66 W7        30.07F HX  93
DECATUR        SUNNY     88  69  53 SW8       30.09F HX  92
EFFINGHAM      MOSUNNY   87  65  47 S5        30.11F HX  88
FLORA          SUNNY     87  67  49 SW5       30.11F HX  90
GALESBURG      PTSUNNY   85  71  63 S12       30.04F HX  90
JACKSONVILLE   MOSUNNY   90  69  50 SW8G18    30.08S HX  94
LACON          PTSUNNY   83  71  65 S7        30.03F HX  88
LAWRENCEVILLE  MOSUNNY   89  68  49 VRB7      30.11F HX  93
LITCHFIELD     SUNNY     87  67  51 SW6       30.10F HX  89
$$


CITY           SKY/WX    TMP DP  RH WIND       PRES   REMARKS
LINCOLN        MOSUNNY   90  67  46 S5        30.05F HX  93
MACOMB         PTSUNNY   86  68  55 S9        30.06F HX  89
MATTOON        MOSUNNY   87  66  49 SW9       30.10F HX  89
MT CARMEL AP   PTSUNNY   86  68  54 SW5       30.10F HX  89
OLNEY-NOBLE AP MOSUNNY   86  70  58 S6        30.11F HX  90
PARIS          SUNNY     86  71  60 W7        30.11F HX  91
PEORIA         MOSUNNY   87  70  56 S8        30.05F HX  92
PONTIAC        SUNNY     87  74  64 SW8       30.06F HX  95
RANTOUL        SUNNY     88  72  58 SW9       30.09F HX  94
ROBINSON       SUNNY     86  70  58 S5        30.11F HX  90
SPRINGFIELD    MOSUNNY   90  69  50 W10       30.07F HX  94
TAYLORVILLE    SUNNY     88  68  51 W8        30.09F HX  91
$$

...REGIONAL REPORTS...


CITY           SKY/WX    TMP DP  RH WIND       PRES   REMARKS
CHICAGO O`HARE MOSUNNY   86  69  56 SW8       30.03F HX  90
KANKAKEE       SUNNY     88  73  61 W9        30.07F HX  95
MOLINE         PTSUNNY   85  69  58 SW12      30.02S HX  89
MOUNT STERLING PTSUNNY   85  70  62 S10       30.06F HX  89
MOUNT VERNON   SUNNY     90  70  51 S9        30.12F HX  95
PITTSFIELD     PTSUNNY   89  68  50 SW7       30.09F HX  93
QUINCY         PTSUNNY   86  69  56 SW13      30.06F HX  90
ROCKFORD       MOSUNNY   86  69  56 SW8       30.03F HX  90
$$


CITY           SKY/WX    TMP DP  RH WIND       PRES   REMARKS
BURLINGTON     CLOUDY    82  70  66 SW8       30.03S HX  86
CEDAR RAPIDS   PTSUNNY   75  71  87 S10       30.00F
DES MOINES     MOSUNNY   82  67  60 SW20G28   29.95F HX  84
KIRKSVILLE     CLOUDY    75  68  78 SW9       30.07F
OTTUMWA        CLOUDY    75  70  84 SW12      29.98F
ST LOUIS       MOSUNNY   90  67  46 W8        30.10F HX  93
$$


CITY           SKY/WX    TMP DP  RH WIND       PRES   REMARKS
TERRE HAUTE    MOSUNNY   86  68  54 VRB6      30.10F HX  89
EVANSVILLE     SUNNY     87  65  47 VRB5      30.11F HX  89
INDIANAPOLIS   PTSUNNY   86  68  54 VRB5      30.11F HX  89
LAFAYETTE      MOSUNNY   87  69  54 VRB3      30.08F HX  91
MADISON        PTSUNNY   84  68  58 SW7       30.00S HX  87
MILWAUKEE      PTSUNNY   87  69  54 SW9       30.00F HX  91
$$




USA.gov is the U.S. government's official web portal to all federal, state and local government web resources and services.